Sterling, IL

2:50 AM CST on November 12, 2019 (GMT -0600)
Whiteside County-Bittorf

Weather History for KSQI - July, 2019

Change the Weather History Date:

Thursday, July 25, 2019

  Actual Average Record
Temperature  
Mean Temperature 70 °F -  
Max Temperature 84 °F 81 °F 102 °F (2012)
Min Temperature 59 °F 60 °F 51 °F (2013)
Cooling Degree Days 6    
Growing Degree Days 20 (Base 50)    
Moisture  
Dew Point 60 °F    
Average Humidity 66    
Maximum Humidity 96    
Minimum Humidity 42    
Precipitation  
Precipitation 0.00 in - - ()
Sea Level Pressure  
Sea Level Pressure 29.77 in    
Wind  
Wind Speed 3 mph (SSE)    
Max Wind Speed 9 mph    
Max Gust Speed -    
Visibility 10 miles    
Events      
Averages and records for this station are not official NWS values.
T = Trace of Precipitation, MM = Missing Value Source: NWS Daily Summary

Daily Weather History Graph

Daily Weather History Graph

Search for Another Location

Airport or City:

Astronomy

Jul. 25, 2019 Rise Set
Actual Time 5:45 AM CDT 8:24 PM CDT
Civil Twilight 5:13 AM CDT 8:56 PM CDT
Nautical Twilight 4:33 AM CDT 9:36 PM CDT
Astronomical Twilight 3:47 AM CDT 10:21 PM CDT
Moon 12:33 AM CDT (7/25) 2:03 PM CDT (7/25)
Length of Visible Light 15h 42m
Length of Day
14h 38m
Last Quarter, 44% of the Moon is Illuminated
Jul 25
Last Quarter
Jul 31
New
Aug 7
First Quarter
Aug 15
Full
Aug 23
Last Quarter

Hourly Weather History & Observations

Time (CDT) Temp. Heat Index Dew Point Humidity Pressure Visibility Wind Dir Wind Speed Gust Speed Precip Events Conditions
12:56 AM 64.0 °F - 60.1 °F 87% 29.75 in 10.0 mi SE 3.5 mph - N/A   Clear
1:56 AM 66.0 °F - 57.9 °F 75% 29.75 in 10.0 mi Calm Calm - N/A   Clear
2:56 AM 59.0 °F - 57.0 °F 93% 29.76 in 10.0 mi Calm Calm - N/A   Clear
3:56 AM 60.1 °F - 57.9 °F 93% 29.77 in 10.0 mi Calm Calm - N/A   Clear
4:56 AM 59.0 °F - 57.9 °F 96% 29.78 in 10.0 mi ESE 4.6 mph - N/A   Clear
5:56 AM 59.0 °F - 57.9 °F 96% 29.79 in 10.0 mi Calm Calm - N/A   Clear
6:56 AM 61.0 °F - 59.0 °F 93% 29.80 in 10.0 mi Calm Calm - N/A   Clear
7:56 AM 66.9 °F - 60.1 °F 79% 29.82 in 10.0 mi East 3.5 mph - N/A   Unknown
8:56 AM 73.0 °F - 60.1 °F 64% 29.81 in 10.0 mi ESE 4.6 mph - N/A   Clear
9:56 AM 77.0 °F - 59.0 °F 54% 29.81 in 10.0 mi SW 5.8 mph - N/A   Clear
10:56 AM 81.0 °F 81.7 °F 61.0 °F 50% 29.80 in 10.0 mi WSW 4.6 mph - N/A   Clear
11:56 AM 82.9 °F 82.8 °F 59.0 °F 44% 29.78 in 10.0 mi Variable 4.6 mph - N/A   Clear
12:56 PM 82.9 °F 82.6 °F 57.9 °F 42% 29.78 in 10.0 mi SSE 9.2 mph - N/A   Clear
1:56 PM 82.0 °F 82.1 °F 59.0 °F 45% 29.77 in 10.0 mi South 4.6 mph - N/A   Partly Cloudy
2:56 PM 82.0 °F 82.4 °F 60.1 °F 47% 29.76 in 10.0 mi SE 6.9 mph - N/A   Partly Cloudy
3:56 PM 82.0 °F 82.4 °F 60.1 °F 47% 29.76 in 10.0 mi SSE 4.6 mph - N/A   Clear
4:56 PM 82.9 °F 82.8 °F 59.0 °F 44% 29.75 in 10.0 mi SE 6.9 mph - N/A   Clear
5:56 PM 82.9 °F 83.2 °F 60.1 °F 46% 29.75 in 10.0 mi Variable 4.6 mph - N/A   Clear
6:56 PM 80.1 °F 81.2 °F 62.1 °F 54% 29.75 in 10.0 mi Calm Calm - N/A   Clear
7:56 PM 77.0 °F - 61.0 °F 58% 29.75 in 10.0 mi SE 4.6 mph - N/A   Clear
8:56 PM 73.9 °F - 62.1 °F 66% 29.74 in 10.0 mi Variable 5.8 mph - N/A   Clear
9:56 PM 72.0 °F - 61.0 °F 68% 29.75 in 10.0 mi Variable 4.6 mph - N/A   Clear
10:56 PM 70.0 °F - 61.0 °F 73% 29.75 in 10.0 mi SE 3.5 mph - N/A   Clear
11:56 PM 68.0 °F - 60.1 °F 76% 29.76 in 10.0 mi SE 3.5 mph - N/A   Clear